Location: Driftpile
(55.3500°N, 115.7667°W)
Time: 05:29:17
(UTC+00:00)

ISS - Pass Details

Date: 05 December 2021
Orbit: 413 x 423 km, 51.6° (Epoch: 20 January)

Event Time Altitude Azimuth Distance (km) Brightness Sun altitude
Rises 23:49:00 0° 269° (W) 2,385 1.2 -4.7°
Reaches altitude 10° 23:51:11 10° 261° (W) 1,517 0.3 -5.0°
Maximum altitude 23:54:22 38° 192° (SSW) 662 -2.3 -5.4°
Drops below altitude 10° 23:57:33 10° 122° (ESE) 1,510 -1.2 -5.7°
Sets 23:59:43 0° 115° (ESE) 2,371 -0.3 -6.0°
